Location: Neu-Ulm
(48.3873°N, 10.0192°E)
Time: 10:36:35
(UTC+01:00)

OTV 5 (USA 277) - Visible Passes

Search period start: 25 February 2018 00:00
Search period end: 07 March 2018 00:00
Orbit: 404 x 417 km, 43.0° (Epoch: 07 September)

Date Brightness Start Highest point End Pass type
(mag) Time Alt. Az. Time Alt. Az. Time Alt. Az.
25 Feb ? 05:47:48 17° SW 05:49:33 27° S 05:52:24 10° ESE visible
26 Feb ? 04:59:06 23° SSE 04:59:06 23° SSE 05:01:19 10° ESE visible
26 Feb ? 06:32:29 10° WSW 06:35:28 31° S 06:38:26 10° ESE visible
27 Feb ? 05:43:07 22° SW 05:44:30 31° S 05:47:29 10° ESE visible
28 Feb ? 04:54:23 26° SE 04:54:23 26° SE 04:56:29 10° ESE visible
28 Feb ? 06:27:35 10° WSW 06:30:25 26° SSW 06:33:14 10° SE visible
01 Mar ? 05:38:23 24° SW 05:39:28 29° S 05:42:23 10° SE visible
02 Mar ? 04:49:40 24° SE 04:49:40 24° SE 04:51:29 10° ESE visible
02 Mar ? 06:22:55 10° WSW 06:25:18 18° SSW 06:27:40 10° SSE visible
03 Mar ? 05:33:44 21° SW 05:34:24 22° SSW 05:37:02 10° SE visible
04 Mar ? 04:45:06 18° SSE 04:45:06 18° SSE 04:46:16 10° SE visible
04 Mar ? 06:19:12 10° SW 06:20:05 11° SSW 06:20:57 10° SSW visible
05 Mar ? 05:29:19 14° SSW 05:29:19 14° SSW 05:31:06 10° S visible
